Time,TemperatureF,DewpointF,PressureIn,WindDirection,WindDirectionDegrees,WindSpeedMPH,WindSpeedGustMPH,Humidity,HourlyPrecipIn,Conditions,Clouds,dailyrainin,SoftwareType,DateUTC
2013-03-23 00:00:00,26.9,23.3,30.05,WNW,303,2.0,5.0,86,0.00,,---,0.00,VWS V14.01,2013-03-23 04:00:00,
2013-03-23 00:01:00,26.9,23.3,30.05,NW,323,0.0,7.0,86,0.00,,---,0.00,VWS V14.01,2013-03-23 04:01:00,
2013-03-23 00:06:00,26.9,23.0,30.05,North,351,0.0,0.0,85,0.00,,---,0.00,VWS V14.01,2013-03-23 04:06:00,
2013-03-23 00:11:00,26.9,23.0,30.05,NW,318,2.0,2.0,85,0.00,,---,0.00,VWS V14.01,2013-03-23 04:11:00,
2013-03-23 00:16:00,26.8,22.6,30.05,NW,307,0.0,9.0,84,0.00,,---,0.00,VWS V14.01,2013-03-23 04:16:00,
2013-03-23 00:21:00,26.8,22.6,30.05,NNW,329,0.0,0.0,84,0.00,,---,0.00,VWS V14.01,2013-03-23 04:21:00,
2013-03-23 00:26:00,26.7,22.5,30.05,NW,323,0.0,1.0,84,0.00,,---,0.00,VWS V14.01,2013-03-23 04:26:00,
2013-03-23 00:31:00,26.7,22.5,30.05,North,5,1.0,1.0,84,0.00,,---,0.00,VWS V14.01,2013-03-23 04:31:00,
2013-03-23 00:36:00,26.7,22.5,30.05,NW,307,0.0,1.0,84,0.00,,---,0.00,VWS V14.01,2013-03-23 04:36:00,
2013-03-23 00:41:00,26.6,22.4,30.05,WNW,289,0.0,0.0,84,0.00,,---,0.00,VWS V14.01,2013-03-23 04:41:00,
2013-03-23 00:46:00,26.6,22.4,30.05,NNW,340,0.0,2.0,84,0.00,,---,0.00,VWS V14.01,2013-03-23 04:46:00,
2013-03-23 00:51:00,26.6,22.4,30.06,NNE,13,4.0,4.0,84,0.00,,---,0.00,VWS V14.01,2013-03-23 04:51:00,
2013-03-23 00:56:00,26.5,22.3,30.06,North,11,4.0,6.0,84,0.00,,---,0.00,VWS V14.01,2013-03-23 04:56:00,
2013-03-23 01:01:00,26.4,22.2,30.05,NNE,31,0.0,0.0,84,0.00,,---,0.00,VWS V14.01,2013-03-23 05:01:00,
2013-03-23 01:06:00,26.4,22.2,30.05,NNW,337,0.0,2.0,84,0.00,,---,0.00,VWS V14.01,2013-03-23 05:06:00,
2013-03-23 01:11:00,26.3,22.1,30.05,North,360,0.0,0.0,84,0.00,,---,0.00,VWS V14.01,2013-03-23 05:11:00,
2013-03-23 01:16:00,26.3,21.9,30.05,NNE,15,3.0,3.0,83,0.00,,---,0.00,VWS V14.01,2013-03-23 05:16:00,
2013-03-23 01:21:00,26.2,21.8,30.05,North,10,0.0,3.0,83,0.00,,---,0.00,VWS V14.01,2013-03-23 05:21:00,
2013-03-23 01:26:00,26.2,21.8,30.05,NNW,334,1.0,1.0,83,0.00,,---,0.00,VWS V14.01,2013-03-23 05:26:00,
2013-03-23 01:31:00,26.2,21.8,30.05,North,355,0.0,2.0,83,0.00,,---,0.00,VWS V14.01,2013-03-23 05:31:00,
2013-03-23 01:36:00,26.2,21.8,30.05,NW,321,0.0,2.0,83,0.00,,---,0.00,VWS V14.01,2013-03-23 05:36:00,
2013-03-23 01:41:00,26.2,21.8,30.06,NW,322,0.0,0.0,83,0.00,,---,0.00,VWS V14.01,2013-03-23 05:41:00,
2013-03-23 01:47:00,26.2,21.8,30.06,WNW,290,0.0,0.0,83,0.00,,---,0.00,VWS V14.01,2013-03-23 05:47:00,
2013-03-23 01:52:00,26.2,21.8,30.06,WNW,290,0.0,1.0,83,0.00,,---,0.00,VWS V14.01,2013-03-23 05:52:00,
2013-03-23 01:57:00,26.2,21.8,30.06,North,360,0.0,3.0,83,0.00,,---,0.00,VWS V14.01,2013-03-23 05:57:00,
2013-03-23 02:02:00,26.2,21.8,30.06,North,9,0.0,0.0,83,0.00,,---,0.00,VWS V14.01,2013-03-23 06:02:00,
2013-03-23 02:07:00,26.1,21.6,30.06,North,9,0.0,0.0,83,0.00,,---,0.00,VWS V14.01,2013-03-23 06:07:00,
2013-03-23 02:12:00,26.1,21.6,30.06,North,10,0.0,0.0,83,0.00,,---,0.00,VWS V14.01,2013-03-23 06:12:00,
2013-03-23 02:17:00,26.0,21.6,30.06,North,9,0.0,0.0,83,0.00,,---,0.00,VWS V14.01,2013-03-23 06:17:00,
2013-03-23 02:22:00,26.1,21.6,30.06,WNW,289,2.0,4.0,83,0.00,,---,0.00,VWS V14.01,2013-03-23 06:22:00,
2013-03-23 02:27:00,26.1,21.9,30.06,West,281,0.0,2.0,84,0.00,,---,0.00,VWS V14.01,2013-03-23 06:27:00,
2013-03-23 02:32:00,26.1,21.9,30.06,WNW,299,0.0,0.0,84,0.00,,---,0.00,VWS V14.01,2013-03-23 06:32:00,
2013-03-23 02:37:00,26.2,22.0,30.06,NNW,345,0.0,0.0,84,0.00,,---,0.00,VWS V14.01,2013-03-23 06:37:00,
2013-03-23 02:42:00,26.2,22.0,30.06,NNE,22,2.0,3.0,84,0.00,,---,0.00,VWS V14.01,2013-03-23 06:42:00,
2013-03-23 02:47:00,26.2,22.0,30.06,North,5,0.0,0.0,84,0.00,,---,0.00,VWS V14.01,2013-03-23 06:47:00,
2013-03-23 02:52:00,26.2,22.3,30.05,North,360,0.0,0.0,85,0.00,,---,0.00,VWS V14.01,2013-03-23 06:52:00,
2013-03-23 02:57:00,26.2,22.3,30.06,North,5,0.0,0.0,85,0.00,,---,0.00,VWS V14.01,2013-03-23 06:57:00,
2013-03-23 03:02:00,26.1,22.2,30.05,North,5,0.0,0.0,85,0.00,,---,0.00,VWS V14.01,2013-03-23 07:02:00,
2013-03-23 03:07:00,26.0,22.1,30.05,North,360,0.0,0.0,85,0.00,,---,0.00,VWS V14.01,2013-03-23 07:07:00,
2013-03-23 03:12:00,26.1,22.2,30.06,NW,316,0.0,2.0,85,0.00,,---,0.00,VWS V14.01,2013-03-23 07:12:00,
2013-03-23 03:17:00,26.1,22.2,30.05,NW,315,0.0,1.0,85,0.00,,---,0.00,VWS V14.01,2013-03-23 07:17:00,
2013-03-23 03:22:00,26.1,22.2,30.05,NW,314,0.0,0.0,85,0.00,,---,0.00,VWS V14.01,2013-03-23 07:22:00,
2013-03-23 03:27:00,26.1,22.2,30.05,NNW,346,0.0,2.0,85,0.00,,---,0.00,VWS V14.01,2013-03-23 07:27:00,
2013-03-23 03:33:00,26.1,22.2,30.05,NNW,327,0.0,1.0,85,0.00,,---,0.00,VWS V14.01,2013-03-23 07:33:00,
2013-03-23 03:38:00,26.1,22.2,30.05,NNE,15,0.0,3.0,85,0.00,,---,0.00,VWS V14.01,2013-03-23 07:38:00,
2013-03-23 03:43:00,26.2,22.3,30.05,North,360,3.0,3.0,85,0.00,,---,0.00,VWS V14.01,2013-03-23 07:43:00,
2013-03-23 03:48:00,26.1,22.2,30.05,North,360,0.0,2.0,85,0.00,,---,0.00,VWS V14.01,2013-03-23 07:48:00,
2013-03-23 03:53:00,26.1,22.2,30.05,North,360,0.0,0.0,85,0.00,,---,0.00,VWS V14.01,2013-03-23 07:53:00,
2013-03-23 03:58:00,26.1,22.2,30.05,North,5,0.0,0.0,85,0.00,,---,0.00,VWS V14.01,2013-03-23 07:58:00,
2013-03-23 04:03:00,26.1,22.2,30.05,North,360,0.0,0.0,85,0.00,,---,0.00,VWS V14.01,2013-03-23 08:03:00,
2013-03-23 04:08:00,26.1,22.2,30.05,North,360,0.0,0.0,85,0.00,,---,0.00,VWS V14.01,2013-03-23 08:08:00,
2013-03-23 04:13:00,26.1,22.2,30.05,NW,306,0.0,0.0,85,0.00,,---,0.00,VWS V14.01,2013-03-23 08:13:00,
2013-03-23 04:18:00,26.1,22.2,30.05,West,267,3.0,4.0,85,0.00,,---,0.00,VWS V14.01,2013-03-23 08:18:00,
2013-03-23 04:23:00,26.2,22.3,30.05,West,264,3.0,3.0,85,0.00,,---,0.00,VWS V14.01,2013-03-23 08:23:00,
2013-03-23 04:28:00,26.2,22.3,30.05,West,278,0.0,3.0,85,0.00,,---,0.00,VWS V14.01,2013-03-23 08:28:00,
2013-03-23 04:33:00,26.2,22.3,30.05,WNW,289,1.0,3.0,85,0.00,,---,0.00,VWS V14.01,2013-03-23 08:33:00,
2013-03-23 04:38:00,26.2,22.3,30.05,WNW,288,0.0,2.0,85,0.00,,---,0.00,VWS V14.01,2013-03-23 08:38:00,
2013-03-23 04:43:00,26.2,22.6,30.05,WNW,302,0.0,4.0,86,0.00,,---,0.00,VWS V14.01,2013-03-23 08:43:00,
2013-03-23 04:48:00,26.2,22.6,30.05,West,271,2.0,4.0,86,0.00,,---,0.00,VWS V14.01,2013-03-23 08:48:00,
2013-03-23 04:53:00,26.2,22.6,30.05,West,271,1.0,2.0,86,0.00,,---,0.00,VWS V14.01,2013-03-23 08:53:00,
2013-03-23 04:58:00,26.3,22.7,30.05,West,280,2.0,3.0,86,0.00,,---,0.00,VWS V14.01,2013-03-23 08:58:00,
2013-03-23 05:03:00,26.3,22.7,30.05,West,280,4.0,5.0,86,0.00,,---,0.00,VWS V14.01,2013-03-23 09:03:00,
2013-03-23 05:08:00,26.3,22.7,30.05,West,269,2.0,5.0,86,0.00,,---,0.00,VWS V14.01,2013-03-23 09:08:00,
2013-03-23 05:13:00,26.3,22.7,30.06,West,269,2.0,4.0,86,0.00,,---,0.00,VWS V14.01,2013-03-23 09:13:00,
2013-03-23 05:18:00,26.3,22.7,30.05,West,273,3.0,4.0,86,0.00,,---,0.00,VWS V14.01,2013-03-23 09:18:00,
2013-03-23 05:23:00,26.3,22.7,30.06,West,268,3.0,4.0,86,0.00,,---,0.00,VWS V14.01,2013-03-23 09:23:00,
2013-03-23 05:28:00,26.3,22.7,30.06,West,272,2.0,3.0,86,0.00,,---,0.00,VWS V14.01,2013-03-23 09:28:00,
2013-03-23 05:33:00,26.3,22.7,30.06,WSW,255,3.0,4.0,86,0.00,,---,0.00,VWS V14.01,2013-03-23 09:33:00,
2013-03-23 05:38:00,26.3,22.7,30.06,West,259,2.0,3.0,86,0.00,,---,0.00,VWS V14.01,2013-03-23 09:38:00,
2013-03-23 05:43:00,26.3,22.7,30.06,WSW,249,4.0,6.0,86,0.00,,---,0.00,VWS V14.01,2013-03-23 09:43:00,
2013-03-23 05:48:00,26.3,22.7,30.06,WSW,244,3.0,4.0,86,0.00,,---,0.00,VWS V14.01,2013-03-23 09:48:00,
2013-03-23 05:53:00,26.3,22.7,30.06,WSW,251,3.0,5.0,86,0.00,,---,0.00,VWS V14.01,2013-03-23 09:53:00,
2013-03-23 05:58:00,26.4,22.8,30.06,West,262,6.0,6.0,86,0.00,,---,0.00,VWS V14.01,2013-03-23 09:58:00,
2013-03-23 06:03:00,26.4,22.8,30.06,West,263,5.0,5.0,86,0.00,,---,0.00,VWS V14.01,2013-03-23 10:03:00,
2013-03-23 06:08:00,26.4,22.8,30.06,WSW,252,6.0,6.0,86,0.00,,---,0.00,VWS V14.01,2013-03-23 10:08:00,
2013-03-23 06:13:00,26.4,22.8,30.06,WSW,253,5.0,6.0,86,0.00,,---,0.00,VWS V14.01,2013-03-23 10:13:00,
2013-03-23 06:18:00,26.5,22.9,30.07,WSW,256,4.0,5.0,86,0.00,,---,0.00,VWS V14.01,2013-03-23 10:18:00,
2013-03-23 06:23:00,26.5,22.9,30.06,West,261,5.0,7.0,86,0.00,,---,0.00,VWS V14.01,2013-03-23 10:23:00,
2013-03-23 06:28:00,26.5,22.9,30.06,WSW,238,5.0,6.0,86,0.00,,---,0.00,VWS V14.01,2013-03-23 10:28:00,
2013-03-23 06:33:00,26.5,22.9,30.06,WSW,253,4.0,5.0,86,0.00,,---,0.00,VWS V14.01,2013-03-23 10:33:00,
2013-03-23 06:38:00,26.5,22.9,30.06,WSW,255,4.0,5.0,86,0.00,,---,0.00,VWS V14.01,2013-03-23 10:38:00,
2013-03-23 06:43:00,26.5,22.9,30.06,WSW,250,3.0,4.0,86,0.00,,---,0.00,VWS V14.01,2013-03-23 10:43:00,
2013-03-23 06:48:00,26.5,22.9,30.07,WSW,245,2.0,3.0,86,0.00,,---,0.00,VWS V14.01,2013-03-23 10:48:00,
2013-03-23 06:53:00,26.6,23.0,30.07,WSW,238,1.0,3.0,86,0.00,,---,0.00,VWS V14.01,2013-03-23 10:53:00,
2013-03-23 06:58:00,26.6,23.0,30.07,SW,236,0.0,2.0,86,0.00,,---,0.00,VWS V14.01,2013-03-23 10:58:00,
2013-03-23 07:03:00,26.6,23.0,30.07,SW,236,0.0,1.0,86,0.00,,---,0.00,VWS V14.01,2013-03-23 11:03:00,
2013-03-23 07:08:00,26.6,23.0,30.07,WSW,238,1.0,2.0,86,0.00,,---,0.00,VWS V14.01,2013-03-23 11:08:00,
2013-03-23 07:13:00,26.6,23.0,30.07,WSW,246,3.0,3.0,86,0.00,,---,0.00,VWS V14.01,2013-03-23 11:13:00,
2013-03-23 07:18:00,26.6,23.0,30.07,WSW,243,0.0,2.0,86,0.00,,---,0.00,VWS V14.01,2013-03-23 11:18:00,
2013-03-23 07:23:00,26.6,23.0,30.07,WSW,237,0.0,0.0,86,0.00,,---,0.00,VWS V14.01,2013-03-23 11:23:00,
2013-03-23 07:28:00,26.6,23.0,30.07,SW,236,0.0,1.0,86,0.00,,---,0.00,VWS V14.01,2013-03-23 11:28:00,
2013-03-23 07:33:00,26.7,23.1,30.07,SW,236,0.0,1.0,86,0.00,,---,0.00,VWS V14.01,2013-03-23 11:33:00,
2013-03-23 07:38:00,26.7,23.1,30.07,WSW,238,1.0,2.0,86,0.00,,---,0.00,VWS V14.01,2013-03-23 11:38:00,
2013-03-23 07:43:00,26.8,23.5,30.08,WSW,250,2.0,4.0,87,0.00,,---,0.00,VWS V14.01,2013-03-23 11:43:00,
2013-03-23 07:48:00,26.8,23.2,30.08,West,261,3.0,3.0,86,0.00,,---,0.00,VWS V14.01,2013-03-23 11:48:00,
2013-03-23 07:53:00,26.9,23.6,30.07,WSW,257,1.0,3.0,87,0.00,,---,0.00,VWS V14.01,2013-03-23 11:53:00,
2013-03-23 07:58:00,27.0,23.6,30.08,WSW,254,2.0,4.0,87,0.00,,---,0.00,VWS V14.01,2013-03-23 11:58:00,
2013-03-23 08:03:00,27.1,23.8,30.08,WSW,250,3.0,5.0,87,0.00,,---,0.00,VWS V14.01,2013-03-23 12:03:00,
2013-03-23 08:08:00,27.3,24.0,30.08,West,281,3.0,5.0,87,0.00,,---,0.00,VWS V14.01,2013-03-23 12:08:00,
2013-03-23 08:13:00,27.5,24.1,30.08,West,267,3.0,5.0,87,0.00,,---,0.00,VWS V14.01,2013-03-23 12:13:00,
2013-03-23 08:19:00,27.7,24.3,30.08,West,278,0.0,4.0,87,0.00,,---,0.00,VWS V14.01,2013-03-23 12:19:00,
2013-03-23 08:24:00,27.9,24.5,30.08,WNW,291,1.0,6.0,87,0.00,,---,0.00,VWS V14.01,2013-03-23 12:24:00,
2013-03-23 08:29:00,28.1,25.0,30.08,WNW,292,0.0,1.0,88,0.00,,---,0.00,VWS V14.01,2013-03-23 12:29:00,
2013-03-23 08:34:00,28.3,25.2,30.08,WNW,287,0.0,2.0,88,0.00,,---,0.00,VWS V14.01,2013-03-23 12:34:00,
2013-03-23 08:39:00,28.5,25.4,30.07,North,349,2.0,2.0,88,0.00,,---,0.00,VWS V14.01,2013-03-23 12:39:00,
2013-03-23 08:44:00,28.6,25.5,30.07,WNW,303,0.0,5.0,88,0.00,,---,0.00,VWS V14.01,2013-03-23 12:44:00,
2013-03-23 08:49:00,28.8,25.7,30.07,WNW,301,4.0,4.0,88,0.00,,---,0.00,VWS V14.01,2013-03-23 12:49:00,
2013-03-23 08:54:00,29.0,25.9,30.08,NW,306,0.0,4.0,88,0.00,,---,0.00,VWS V14.01,2013-03-23 12:54:00,
2013-03-23 08:59:00,29.1,26.0,30.08,NW,306,0.0,5.0,88,0.00,,---,0.00,VWS V14.01,2013-03-23 12:59:00,
2013-03-23 09:04:00,29.2,26.1,30.08,WNW,286,3.0,6.0,88,0.00,,---,0.00,VWS V14.01,2013-03-23 13:04:00,
2013-03-23 09:09:00,29.3,26.2,30.08,NNW,341,0.0,4.0,88,0.00,,---,0.00,VWS V14.01,2013-03-23 13:09:00,
2013-03-23 09:14:00,29.4,26.3,30.09,West,265,5.0,5.0,88,0.00,,---,0.00,VWS V14.01,2013-03-23 13:14:00,
2013-03-23 09:19:00,29.5,26.4,30.08,West,273,1.0,6.0,88,0.00,,---,0.00,VWS V14.01,2013-03-23 13:19:00,
2013-03-23 09:24:00,29.6,26.5,30.09,West,273,5.0,7.0,88,0.00,,---,0.00,VWS V14.01,2013-03-23 13:24:00,
2013-03-23 09:29:00,29.7,26.6,30.09,WNW,296,0.0,10.0,88,0.00,,---,0.00,VWS V14.01,2013-03-23 13:29:00,
2013-03-23 09:34:00,29.9,26.8,30.09,NW,321,1.0,3.0,88,0.00,,---,0.00,VWS V14.01,2013-03-23 13:34:00,
2013-03-23 09:39:00,30.1,27.0,30.09,North,355,0.0,3.0,88,0.00,,---,0.00,VWS V14.01,2013-03-23 13:39:00,
2013-03-23 09:44:00,30.0,26.9,30.09,NW,315,0.0,2.0,88,0.00,,---,0.00,VWS V14.01,2013-03-23 13:44:00,
2013-03-23 09:49:00,30.1,27.3,30.10,WNW,298,0.0,4.0,89,0.00,,---,0.00,VWS V14.01,2013-03-23 13:49:00,
2013-03-23 09:54:00,30.2,27.4,30.10,WNW,288,0.0,4.0,89,0.00,,---,0.00,VWS V14.01,2013-03-23 13:54:00,
2013-03-23 09:59:00,30.1,27.3,30.09,North,360,1.0,5.0,89,0.00,,---,0.00,VWS V14.01,2013-03-23 13:59:00,
2013-03-23 10:04:00,30.0,27.2,30.09,North,11,0.0,6.0,89,0.00,,---,0.00,VWS V14.01,2013-03-23 14:04:00,
2013-03-23 10:09:00,30.1,27.3,30.09,North,11,1.0,6.0,89,0.00,,---,0.00,VWS V14.01,2013-03-23 14:09:00,
2013-03-23 10:14:00,30.0,27.2,30.09,NNE,15,4.0,4.0,89,0.00,,---,0.00,VWS V14.01,2013-03-23 14:14:00,
2013-03-23 10:20:00,29.9,27.1,30.09,NNE,12,0.0,4.0,89,0.00,,---,0.00,VWS V14.01,2013-03-23 14:20:00,
2013-03-23 10:24:00,29.8,26.7,30.09,NNE,16,3.0,6.0,88,0.00,,---,0.00,VWS V14.01,2013-03-23 14:24:00,
2013-03-23 10:30:00,30.1,27.3,30.09,NNE,15,0.0,3.0,89,0.00,,---,0.00,VWS V14.01,2013-03-23 14:30:00,
2013-03-23 10:35:00,30.5,27.4,30.09,NNE,17,5.0,6.0,88,0.00,,---,0.00,VWS V14.01,2013-03-23 14:35:00,
2013-03-23 10:40:00,30.5,27.1,30.09,North,11,3.0,8.0,87,0.00,,---,0.00,VWS V14.01,2013-03-23 14:40:00,
2013-03-23 10:45:00,30.7,27.0,30.09,North,360,1.0,5.0,86,0.00,,---,0.00,VWS V14.01,2013-03-23 14:45:00,
2013-03-23 10:50:00,30.7,27.0,30.09,NNE,19,6.0,6.0,86,0.00,,---,0.00,VWS V14.01,2013-03-23 14:50:00,
2013-03-23 10:55:00,30.8,26.8,30.09,North,11,2.0,7.0,85,0.00,,---,0.00,VWS V14.01,2013-03-23 14:55:00,
2013-03-23 11:00:00,30.8,26.5,30.09,NNE,15,5.0,6.0,84,0.00,,---,0.00,VWS V14.01,2013-03-23 15:00:00,
2013-03-23 11:05:00,31.1,26.5,30.10,NNW,340,0.0,5.0,83,0.00,,---,0.00,VWS V14.01,2013-03-23 15:05:00,
2013-03-23 11:10:00,31.3,26.8,30.10,NNE,19,0.0,4.0,83,0.00,,---,0.00,VWS V14.01,2013-03-23 15:10:00,
2013-03-23 11:15:00,31.2,26.4,30.10,NNW,331,1.0,5.0,82,0.00,,---,0.00,VWS V14.01,2013-03-23 15:15:00,
2013-03-23 11:20:00,31.4,26.8,30.10,North,10,6.0,6.0,83,0.00,,---,0.00,VWS V14.01,2013-03-23 15:20:00,
2013-03-23 11:25:00,31.1,26.8,30.10,North,360,0.0,6.0,84,0.00,,---,0.00,VWS V14.01,2013-03-23 15:25:00,
2013-03-23 11:30:00,31.2,26.9,30.10,NNE,14,5.0,9.0,84,0.00,,---,0.00,VWS V14.01,2013-03-23 15:30:00,
2013-03-23 11:35:00,31.3,26.8,30.10,NNW,345,2.0,8.0,83,0.00,,---,0.00,VWS V14.01,2013-03-23 15:35:00,
2013-03-23 11:40:00,31.0,26.7,30.10,North,11,1.0,6.0,84,0.00,,---,0.00,VWS V14.01,2013-03-23 15:40:00,
2013-03-23 11:45:00,31.2,26.6,30.10,NNW,348,1.0,6.0,83,0.00,,---,0.00,VWS V14.01,2013-03-23 15:45:00,
2013-03-23 11:50:00,31.5,26.9,30.10,North,11,2.0,3.0,83,0.00,,---,0.00,VWS V14.01,2013-03-23 15:50:00,
2013-03-23 11:55:00,31.2,26.1,30.10,NNE,17,6.0,7.0,81,0.00,,---,0.00,VWS V14.01,2013-03-23 15:55:00,
2013-03-23 12:00:00,30.8,26.3,30.10,NNW,348,1.0,6.0,83,0.00,,---,0.00,VWS V14.01,2013-03-23 16:00:00,
2013-03-23 12:05:00,30.9,26.4,30.10,NNE,25,0.0,6.0,83,0.00,,---,0.00,VWS V14.01,2013-03-23 16:05:00,
2013-03-23 12:10:00,31.1,26.0,30.10,NW,314,1.0,6.0,81,0.00,,---,0.00,VWS V14.01,2013-03-23 16:10:00,
2013-03-23 12:15:00,31.3,25.6,30.10,WNW,284,0.0,4.0,79,0.00,,---,0.00,VWS V14.01,2013-03-23 16:15:00,
2013-03-23 12:20:00,31.7,25.3,30.10,North,5,0.0,4.0,77,0.00,,---,0.00,VWS V14.01,2013-03-23 16:20:00,
2013-03-23 12:25:00,31.7,24.0,30.10,NNE,18,3.0,5.0,73,0.00,,---,0.00,VWS V14.01,2013-03-23 16:25:00,
2013-03-23 12:30:00,32.1,25.1,30.11,North,5,1.0,5.0,75,0.00,,---,0.00,VWS V14.01,2013-03-23 16:30:00,
2013-03-23 12:35:00,32.1,25.4,30.11,East,88,0.0,2.0,76,0.00,,---,0.00,VWS V14.01,2013-03-23 16:35:00,
2013-03-23 12:40:00,32.7,25.3,30.11,North,349,2.0,3.0,74,0.00,,---,0.00,VWS V14.01,2013-03-23 16:40:00,
2013-03-23 12:45:00,32.4,24.4,30.11,North,5,1.0,9.0,72,0.00,,---,0.00,VWS V14.01,2013-03-23 16:45:00,
2013-03-23 12:50:00,32.2,24.2,30.11,North,11,0.0,7.0,72,0.00,,---,0.00,VWS V14.01,2013-03-23 16:50:00,
2013-03-23 12:55:00,31.9,23.9,30.11,NNE,19,1.0,7.0,72,0.00,,---,0.00,VWS V14.01,2013-03-23 16:55:00,
2013-03-23 13:00:00,31.7,24.0,30.11,NNE,21,4.0,6.0,73,0.00,,---,0.00,VWS V14.01,2013-03-23 17:00:00,
2013-03-23 13:05:00,32.1,24.4,30.11,NNE,15,1.0,7.0,73,0.00,,---,0.00,VWS V14.01,2013-03-23 17:05:00,
2013-03-23 13:10:00,32.4,24.7,30.11,NNE,17,4.0,6.0,73,0.00,,---,0.00,VWS V14.01,2013-03-23 17:10:00,
2013-03-23 13:15:00,32.4,24.4,30.11,NNE,22,3.0,5.0,72,0.00,,---,0.00,VWS V14.01,2013-03-23 17:15:00,
2013-03-23 13:20:00,32.3,24.3,30.11,North,360,1.0,10.0,72,0.00,,---,0.00,VWS V14.01,2013-03-23 17:20:00,
2013-03-23 13:25:00,32.4,24.1,30.11,North,11,1.0,9.0,71,0.00,,---,0.00,VWS V14.01,2013-03-23 17:25:00,
2013-03-23 13:30:00,32.5,24.5,30.11,NNE,15,0.0,3.0,72,0.00,,---,0.00,VWS V14.01,2013-03-23 17:30:00,
2013-03-23 13:35:00,32.6,23.9,30.11,NW,315,6.0,13.0,70,0.00,,---,0.00,VWS V14.01,2013-03-23 17:35:00,
2013-03-23 13:40:00,33.0,24.3,30.11,NW,311,0.0,5.0,70,0.00,,---,0.00,VWS V14.01,2013-03-23 17:40:00,
2013-03-23 13:45:00,32.8,23.8,30.11,North,355,3.0,6.0,69,0.01,,---,0.01,VWS V14.01,2013-03-23 17:45:00,
2013-03-23 13:50:00,32.1,23.4,30.11,NNE,13,4.0,10.0,70,0.01,,---,0.01,VWS V14.01,2013-03-23 17:50:00,
2013-03-23 13:55:00,32.1,23.8,30.11,NNE,13,2.0,9.0,71,0.01,,---,0.01,VWS V14.01,2013-03-23 17:55:00,
2013-03-23 14:00:00,32.4,24.4,30.11,NW,306,2.0,9.0,72,0.01,,---,0.01,VWS V14.01,2013-03-23 18:00:00,
2013-03-23 14:05:00,33.1,24.4,30.11,NNE,14,2.0,7.0,70,0.01,,---,0.01,VWS V14.01,2013-03-23 18:05:00,
2013-03-23 14:10:00,33.5,24.4,30.11,WNW,282,7.0,10.0,69,0.01,,---,0.01,VWS V14.01,2013-03-23 18:10:00,
2013-03-23 14:15:00,33.5,24.8,30.10,West,276,5.0,10.0,70,0.01,,---,0.01,VWS V14.01,2013-03-23 18:15:00,
2013-03-23 14:20:00,33.6,24.9,30.10,NE,45,0.0,4.0,70,0.01,,---,0.01,VWS V14.01,2013-03-23 18:20:00,
2013-03-23 14:25:00,33.1,24.4,30.10,NNE,19,1.0,4.0,70,0.01,,---,0.01,VWS V14.01,2013-03-23 18:25:00,
2013-03-23 14:30:00,33.3,24.9,30.10,West,275,7.0,7.0,71,0.01,,---,0.01,VWS V14.01,2013-03-23 18:30:00,
2013-03-23 14:35:00,33.6,24.9,30.11,West,278,4.0,9.0,70,0.01,,---,0.01,VWS V14.01,2013-03-23 18:35:00,
2013-03-23 14:40:00,33.7,24.6,30.11,North,355,0.0,4.0,69,0.01,,---,0.01,VWS V14.01,2013-03-23 18:40:00,
2013-03-23 14:45:00,33.8,25.1,30.11,West,260,10.0,10.0,70,0.00,,---,0.01,VWS V14.01,2013-03-23 18:45:00,
2013-03-23 14:50:00,34.1,25.4,30.11,West,279,2.0,6.0,70,0.00,,---,0.01,VWS V14.01,2013-03-23 18:50:00,
2013-03-23 14:55:00,33.7,24.3,30.11,NW,319,0.0,12.0,68,0.00,,---,0.01,VWS V14.01,2013-03-23 18:55:00,
2013-03-23 15:00:00,33.7,24.6,30.10,North,355,0.0,7.0,69,0.00,,---,0.01,VWS V14.01,2013-03-23 19:00:00,
2013-03-23 15:05:00,33.6,24.5,30.11,West,266,9.0,12.0,69,0.00,,---,0.01,VWS V14.01,2013-03-23 19:05:00,
2013-03-23 15:11:00,33.3,23.5,30.11,WNW,296,8.0,12.0,67,0.00,,---,0.01,VWS V14.01,2013-03-23 19:11:00,
2013-03-23 15:16:00,33.2,23.8,30.10,West,259,10.0,12.0,68,0.00,,---,0.01,VWS V14.01,2013-03-23 19:16:00,
2013-03-23 15:21:00,33.1,23.7,30.10,West,273,10.0,15.0,68,0.00,,---,0.01,VWS V14.01,2013-03-23 19:21:00,
2013-03-23 15:26:00,33.2,24.5,30.10,WNW,286,2.0,15.0,70,0.00,,---,0.01,VWS V14.01,2013-03-23 19:26:00,
2013-03-23 15:31:00,33.5,24.1,30.10,NNW,329,0.0,10.0,68,0.00,,---,0.01,VWS V14.01,2013-03-23 19:31:00,
2013-03-23 15:36:00,33.5,24.1,30.10,WSW,244,6.0,8.0,68,0.00,,---,0.01,VWS V14.01,2013-03-23 19:36:00,
2013-03-23 15:41:00,33.1,24.0,30.10,West,264,9.0,12.0,69,0.00,,---,0.01,VWS V14.01,2013-03-23 19:41:00,
2013-03-23 15:46:00,33.2,23.8,30.10,West,262,6.0,12.0,68,0.00,,---,0.01,VWS V14.01,2013-03-23 19:46:00,
2013-03-23 15:51:00,33.1,23.7,30.10,West,269,13.0,14.0,68,0.00,,---,0.01,VWS V14.01,2013-03-23 19:51:00,
2013-03-23 15:56:00,33.0,23.6,30.10,West,265,9.0,12.0,68,0.00,,---,0.01,VWS V14.01,2013-03-23 19:56:00,
2013-03-23 16:01:00,33.0,24.0,30.10,West,269,10.0,10.0,69,0.00,,---,0.01,VWS V14.01,2013-03-23 20:01:00,
2013-03-23 16:06:00,33.3,24.2,30.10,WNW,287,10.0,12.0,69,0.00,,---,0.01,VWS V14.01,2013-03-23 20:06:00,
2013-03-23 16:11:00,33.5,24.1,30.10,WNW,284,8.0,9.0,68,0.00,,---,0.01,VWS V14.01,2013-03-23 20:11:00,
2013-03-23 16:16:00,33.6,24.2,30.10,West,281,3.0,4.0,68,0.00,,---,0.01,VWS V14.01,2013-03-23 20:16:00,
2013-03-23 16:21:00,33.5,24.1,30.09,West,263,10.0,13.0,68,0.00,,---,0.01,VWS V14.01,2013-03-23 20:21:00,
2013-03-23 16:26:00,33.0,23.6,30.10,West,272,5.0,7.0,68,0.00,,---,0.01,VWS V14.01,2013-03-23 20:26:00,
2013-03-23 16:32:00,33.4,24.0,30.10,West,275,5.0,8.0,68,0.00,,---,0.01,VWS V14.01,2013-03-23 20:32:00,
2013-03-23 16:37:00,33.8,24.4,30.09,West,264,9.0,9.0,68,0.00,,---,0.01,VWS V14.01,2013-03-23 20:37:00,
2013-03-23 16:42:00,33.9,24.1,30.09,West,277,10.0,11.0,67,0.00,,---,0.01,VWS V14.01,2013-03-23 20:42:00,
2013-03-23 16:47:00,34.1,24.3,30.09,WNW,294,5.0,9.0,67,0.00,,---,0.01,VWS V14.01,2013-03-23 20:47:00,
2013-03-23 16:52:00,34.0,23.9,30.09,WNW,290,0.0,5.0,66,0.00,,---,0.01,VWS V14.01,2013-03-23 20:52:00,
2013-03-23 16:57:00,33.6,23.5,30.09,North,360,3.0,5.0,66,0.00,,---,0.01,VWS V14.01,2013-03-23 20:57:00,
2013-03-23 17:02:00,33.4,24.0,30.09,North,360,0.0,3.0,68,0.00,,---,0.01,VWS V14.01,2013-03-23 21:02:00,
2013-03-23 17:07:00,33.4,23.6,30.08,North,9,1.0,4.0,67,0.00,,---,0.01,VWS V14.01,2013-03-23 21:07:00,
2013-03-23 17:12:00,33.3,24.2,30.09,NW,321,0.0,1.0,69,0.00,,---,0.01,VWS V14.01,2013-03-23 21:12:00,
2013-03-23 17:17:00,33.5,23.7,30.08,North,360,0.0,3.0,67,0.00,,---,0.01,VWS V14.01,2013-03-23 21:17:00,
2013-03-23 17:22:00,33.4,23.6,30.08,NNW,338,1.0,3.0,67,0.00,,---,0.01,VWS V14.01,2013-03-23 21:22:00,
2013-03-23 17:27:00,33.2,23.8,30.08,NNW,344,1.0,4.0,68,0.00,,---,0.01,VWS V14.01,2013-03-23 21:27:00,
2013-03-23 17:32:00,32.9,23.9,30.08,NNE,24,0.0,4.0,69,0.00,,---,0.01,VWS V14.01,2013-03-23 21:32:00,
2013-03-23 17:37:00,33.1,24.0,30.08,WNW,303,2.0,2.0,69,0.00,,---,0.01,VWS V14.01,2013-03-23 21:37:00,
2013-03-23 17:42:00,33.6,24.2,30.08,NNE,24,0.0,4.0,68,0.00,,---,0.01,VWS V14.01,2013-03-23 21:42:00,
2013-03-23 17:47:00,34.0,24.6,30.08,WNW,289,6.0,9.0,68,0.00,,---,0.01,VWS V14.01,2013-03-23 21:47:00,
2013-03-23 17:52:00,34.4,24.6,30.08,West,281,2.0,4.0,67,0.00,,---,0.01,VWS V14.01,2013-03-23 21:52:00,
2013-03-23 17:58:00,34.4,25.0,30.09,WSW,245,1.0,4.0,68,0.00,,---,0.01,VWS V14.01,2013-03-23 21:58:00,
2013-03-23 18:03:00,34.5,25.0,30.09,WNW,284,5.0,6.0,68,0.00,,---,0.01,VWS V14.01,2013-03-23 22:03:00,
2013-03-23 18:08:00,34.9,25.1,30.08,WNW,296,6.0,7.0,67,0.00,,---,0.01,VWS V14.01,2013-03-23 22:08:00,
2013-03-23 18:13:00,34.9,25.4,30.08,WNW,285,3.0,10.0,68,0.00,,---,0.01,VWS V14.01,2013-03-23 22:13:00,
2013-03-23 18:18:00,34.0,25.6,30.09,West,275,7.0,12.0,71,0.00,,---,0.01,VWS V14.01,2013-03-23 22:18:00,
2013-03-23 18:23:00,33.1,25.4,30.09,West,275,10.0,10.0,73,0.00,,---,0.01,VWS V14.01,2013-03-23 22:23:00,
2013-03-23 18:28:00,32.6,25.6,30.09,WSW,256,6.0,12.0,75,0.00,,---,0.01,VWS V14.01,2013-03-23 22:28:00,
2013-03-23 18:33:00,32.5,25.8,30.09,West,271,5.0,6.0,76,0.00,,---,0.01,VWS V14.01,2013-03-23 22:33:00,
2013-03-23 18:38:00,32.5,26.1,30.09,West,264,2.0,7.0,77,0.00,,---,0.01,VWS V14.01,2013-03-23 22:38:00,
2013-03-23 18:43:00,32.4,26.0,30.09,West,272,3.0,7.0,77,0.00,,---,0.01,VWS V14.01,2013-03-23 22:43:00,
2013-03-23 18:48:00,32.4,26.0,30.09,West,269,5.0,5.0,77,0.00,,---,0.01,VWS V14.01,2013-03-23 22:48:00,
2013-03-23 18:53:00,32.3,25.9,30.09,West,269,5.0,7.0,77,0.00,,---,0.01,VWS V14.01,2013-03-23 22:53:00,
2013-03-23 18:58:00,32.2,26.1,30.09,West,277,6.0,7.0,78,0.00,,---,0.01,VWS V14.01,2013-03-23 22:58:00,
2013-03-23 19:03:00,32.1,26.0,30.09,West,261,3.0,5.0,78,0.00,,---,0.01,VWS V14.01,2013-03-23 23:03:00,
2013-03-23 19:08:00,32.1,26.0,30.09,WNW,286,4.0,5.0,78,0.00,,---,0.01,VWS V14.01,2013-03-23 23:08:00,
2013-03-23 19:13:00,32.1,26.0,30.09,West,271,4.0,9.0,78,0.00,,---,0.01,VWS V14.01,2013-03-23 23:13:00,
2013-03-23 19:18:00,31.9,26.1,30.10,West,275,6.0,8.0,79,0.00,,---,0.01,VWS V14.01,2013-03-23 23:18:00,
2013-03-23 19:23:00,31.9,26.1,30.10,West,269,2.0,5.0,79,0.00,,---,0.01,VWS V14.01,2013-03-23 23:23:00,
2013-03-23 19:28:00,31.8,26.0,30.10,WNW,282,10.0,10.0,79,0.00,,---,0.01,VWS V14.01,2013-03-23 23:28:00,
2013-03-23 19:33:00,31.7,25.9,30.10,West,279,6.0,6.0,79,0.00,,---,0.01,VWS V14.01,2013-03-23 23:33:00,
2013-03-23 19:38:00,31.6,25.9,30.09,West,277,5.0,9.0,79,0.00,,---,0.01,VWS V14.01,2013-03-23 23:38:00,
2013-03-23 19:43:00,31.5,26.0,30.09,West,275,4.0,9.0,80,0.00,,---,0.01,VWS V14.01,2013-03-23 23:43:00,
2013-03-23 19:48:00,31.4,26.0,30.09,WNW,284,7.0,7.0,80,0.00,,---,0.01,VWS V14.01,2013-03-23 23:48:00,
2013-03-23 19:53:00,31.4,26.0,30.09,WNW,284,5.0,6.0,80,0.00,,---,0.01,VWS V14.01,2013-03-23 23:53:00,
2013-03-23 19:58:00,31.4,26.2,30.10,West,278,5.0,5.0,81,0.00,,---,0.01,VWS V14.01,2013-03-23 23:58:00,
2013-03-23 20:03:00,31.4,26.2,30.09,West,261,4.0,5.0,81,0.00,,---,0.01,VWS V14.01,2013-03-24 00:03:00,
2013-03-23 20:08:00,31.4,26.2,30.10,WNW,284,5.0,10.0,81,0.00,,---,0.01,VWS V14.01,2013-03-24 00:08:00,
2013-03-23 20:13:00,31.3,26.2,30.10,West,276,5.0,8.0,81,0.00,,---,0.01,VWS V14.01,2013-03-24 00:13:00,
2013-03-23 20:18:00,31.2,26.4,30.10,WNW,292,2.0,6.0,82,0.00,,---,0.01,VWS V14.01,2013-03-24 00:18:00,
2013-03-23 20:23:00,31.2,26.6,30.10,West,273,4.0,6.0,83,0.00,,---,0.01,VWS V14.01,2013-03-24 00:23:00,
2013-03-23 20:28:00,31.2,26.6,30.10,West,269,3.0,6.0,83,0.00,,---,0.01,VWS V14.01,2013-03-24 00:28:00,
2013-03-23 20:33:00,31.2,26.9,30.09,West,269,4.0,4.0,84,0.00,,---,0.01,VWS V14.01,2013-03-24 00:33:00,
2013-03-23 20:38:00,31.2,26.9,30.10,West,268,3.0,4.0,84,0.00,,---,0.01,VWS V14.01,2013-03-24 00:38:00,
2013-03-23 20:43:00,31.2,26.9,30.10,West,270,2.0,5.0,84,0.00,,---,0.01,VWS V14.01,2013-03-24 00:43:00,
2013-03-23 20:48:00,31.2,26.9,30.10,West,268,1.0,3.0,84,0.00,,---,0.01,VWS V14.01,2013-03-24 00:48:00,
2013-03-23 20:53:00,31.2,27.2,30.10,West,268,0.0,2.0,85,0.00,,---,0.01,VWS V14.01,2013-03-24 00:53:00,
2013-03-23 20:58:00,31.2,27.2,30.09,West,268,0.0,2.0,85,0.00,,---,0.01,VWS V14.01,2013-03-24 00:58:00,
2013-03-23 21:03:00,31.2,27.2,30.09,West,268,1.0,2.0,85,0.00,,---,0.01,VWS V14.01,2013-03-24 01:03:00,
2013-03-23 21:08:00,31.1,27.1,30.10,West,268,2.0,3.0,85,0.00,,---,0.01,VWS V14.01,2013-03-24 01:08:00,
2013-03-23 21:14:00,31.1,27.1,30.10,West,268,3.0,3.0,85,0.00,,---,0.01,VWS V14.01,2013-03-24 01:14:00,
2013-03-23 21:18:00,31.1,27.1,30.10,West,267,1.0,3.0,85,0.00,,---,0.01,VWS V14.01,2013-03-24 01:18:00,
2013-03-23 21:24:00,31.1,27.1,30.10,West,267,2.0,3.0,85,0.00,,---,0.01,VWS V14.01,2013-03-24 01:24:00,
2013-03-23 21:29:00,31.1,27.4,30.10,West,267,2.0,3.0,86,0.00,,---,0.01,VWS V14.01,2013-03-24 01:29:00,
2013-03-23 21:34:00,31.0,27.3,30.10,West,267,0.0,1.0,86,0.00,,---,0.01,VWS V14.01,2013-03-24 01:34:00,
2013-03-23 21:39:00,31.0,27.3,30.10,West,267,0.0,0.0,86,0.00,,---,0.01,VWS V14.01,2013-03-24 01:39:00,
2013-03-23 21:44:00,31.0,27.3,30.10,West,267,0.0,0.0,86,0.00,,---,0.01,VWS V14.01,2013-03-24 01:44:00,
2013-03-23 21:49:00,31.0,27.3,30.10,West,267,0.0,0.0,86,0.00,,---,0.01,VWS V14.01,2013-03-24 01:49:00,
2013-03-23 21:54:00,31.0,27.3,30.10,West,267,0.0,0.0,86,0.00,,---,0.01,VWS V14.01,2013-03-24 01:54:00,
2013-03-23 21:59:00,30.9,27.2,30.10,West,267,0.0,0.0,86,0.00,,---,0.01,VWS V14.01,2013-03-24 01:59:00,
2013-03-23 22:04:00,30.9,27.5,30.10,West,267,0.0,0.0,87,0.00,,---,0.01,VWS V14.01,2013-03-24 02:04:00,
2013-03-23 22:09:00,30.8,27.4,30.10,West,267,0.0,0.0,87,0.00,,---,0.01,VWS V14.01,2013-03-24 02:09:00,
2013-03-23 22:14:00,30.8,27.4,30.10,West,267,0.0,0.0,87,0.00,,---,0.01,VWS V14.01,2013-03-24 02:14:00,
2013-03-23 22:19:00,30.8,27.4,30.10,West,267,0.0,0.0,87,0.00,,---,0.01,VWS V14.01,2013-03-24 02:19:00,
2013-03-23 22:24:00,30.8,27.4,30.09,West,267,0.0,0.0,87,0.00,,---,0.01,VWS V14.01,2013-03-24 02:24:00,
2013-03-23 22:29:00,30.7,27.3,30.10,West,267,0.0,0.0,87,0.00,,---,0.01,VWS V14.01,2013-03-24 02:29:00,
2013-03-23 22:34:00,30.7,27.3,30.10,West,267,0.0,0.0,87,0.00,,---,0.01,VWS V14.01,2013-03-24 02:34:00,
2013-03-23 22:39:00,30.7,27.3,30.09,West,267,1.0,2.0,87,0.00,,---,0.01,VWS V14.01,2013-03-24 02:39:00,
2013-03-23 22:44:00,30.7,27.3,30.09,West,267,2.0,2.0,87,0.00,,---,0.01,VWS V14.01,2013-03-24 02:44:00,
2013-03-23 22:49:00,30.6,27.5,30.09,ENE,59,4.0,4.0,88,0.00,,---,0.01,VWS V14.01,2013-03-24 02:49:00,
2013-03-23 22:54:00,30.5,27.4,30.09,ENE,57,2.0,3.0,88,0.00,,---,0.01,VWS V14.01,2013-03-24 02:54:00,
2013-03-23 22:59:00,30.5,27.4,30.08,NE,49,1.0,3.0,88,0.00,,---,0.01,VWS V14.01,2013-03-24 02:59:00,
2013-03-23 23:04:00,30.5,27.4,30.08,NE,44,3.0,4.0,88,0.00,,---,0.01,VWS V14.01,2013-03-24 03:04:00,
2013-03-23 23:09:00,30.6,27.5,30.08,NNE,19,2.0,4.0,88,0.00,,---,0.01,VWS V14.01,2013-03-24 03:09:00,
2013-03-23 23:14:00,30.6,27.8,30.09,NNE,13,2.0,5.0,89,0.00,,---,0.01,VWS V14.01,2013-03-24 03:14:00,
2013-03-23 23:19:00,30.6,27.8,30.08,NNE,14,3.0,3.0,89,0.00,,---,0.01,VWS V14.01,2013-03-24 03:19:00,
2013-03-23 23:24:00,30.5,27.6,30.08,NNE,30,2.0,5.0,89,0.00,,---,0.01,VWS V14.01,2013-03-24 03:24:00,
2013-03-23 23:29:00,30.6,27.8,30.08,NNE,19,2.0,5.0,89,0.00,,---,0.01,VWS V14.01,2013-03-24 03:29:00,
2013-03-23 23:34:00,30.7,27.9,30.09,NNE,32,5.0,5.0,89,0.00,,---,0.01,VWS V14.01,2013-03-24 03:34:00,
2013-03-23 23:39:00,30.7,27.6,30.09,NNE,13,7.0,7.0,88,0.00,,---,0.01,VWS V14.01,2013-03-24 03:39:00,
2013-03-23 23:44:00,30.7,27.6,30.09,NNE,26,7.0,7.0,88,0.00,,---,0.01,VWS V14.01,2013-03-24 03:44:00,
2013-03-23 23:49:00,30.6,27.2,30.08,NNE,12,3.0,5.0,87,0.00,,---,0.01,VWS V14.01,2013-03-24 03:49:00,
2013-03-23 23:54:00,30.5,26.8,30.09,NNE,15,3.0,12.0,86,0.00,,---,0.01,VWS V14.01,2013-03-24 03:54:00,
2013-03-23 23:59:00,30.4,26.4,30.09,NNE,12,2.0,7.0,85,0.00,,---,0.01,VWS V14.01,2013-03-24 03:59:00,